When you browse on this site, cookies collect data to enhance your experience and personalize the content and advertising you see.
Visit our Privacy Policy to learn more. By continuing to use the site, you agree to this use of cookies and data.
  • In Schweiz
  • Länderverzeichnis
  • Für 7 Tage
  • Wassertemperatur
  • Satellitenkarten
  • Wetterkarte
  • Widgets
  • user-avatar
    Anmelden

    Stündliche Wetter Brühl

    Heute, 26 Mai, Sonntag

    Zeit Temperatur Niederschläge Wind Luftdruck Luftfeuchtigkeit
    00:00 +12°C° 0 mm 1 m/S 756 mmHg 80%
    01:00 +12°C° 0 mm 2 m/S 756 mmHg 83%
    02:00 +12°C° 0 mm 2 m/S 756 mmHg 85%
    03:00 +10°C° 0 mm 2 m/S 755 mmHg 88%
    04:00 +12°C° 0 mm 2 m/S 755 mmHg 84%
    05:00 +13°C° 0 mm 2 m/S 755 mmHg 79%
    06:00 +14°C° 0 mm 2 m/S 755 mmHg 75%
    07:00 +16°C° 0 mm 2 m/S 755 mmHg 68%
    08:00 +18°C° 0 mm 3 m/S 755 mmHg 61%
    09:00 +20°C° 0 mm 3 m/S 755 mmHg 54%
    10:00 +21°C° 0.1 mm 4 m/S 754 mmHg 55%
    11:00 +21°C° 0.1 mm 4 m/S 754 mmHg 56%
    12:00 +22°C° 0.1 mm 4 m/S 754 mmHg 57%
    13:00 +22°C° 0.1 mm 4 m/S 753 mmHg 58%
    14:00 +22°C° 0.1 mm 4 m/S 753 mmHg 59%
    15:00 +22°C° 0.1 mm 4 m/S 753 mmHg 61%
    16:00 +21°C° 0 mm 4 m/S 752 mmHg 63%
    17:00 +21°C° 0 mm 4 m/S 752 mmHg 66%
    18:00 +20°C° 0 mm 3 m/S 752 mmHg 69%
    19:00 +19°C° 0 mm 3 m/S 752 mmHg 74%
    20:00 +17°C° 0 mm 3 m/S 752 mmHg 79%
    21:00 +16°C° 0 mm 3 m/S 752 mmHg 85%
    22:00 +14°C° 0 mm 3 m/S 752 mmHg 86%
    23:00 +14°C° 0 mm 3 m/S 751 mmHg 87%

    Morgen, 27 Mai, Montag

    Zeit Temperatur Niederschläge Wind Luftdruck Luftfeuchtigkeit
    00:00 +14°C° 0 mm 3 m/S 751 mmHg 88%
    01:00 +14°C° 0.2 mm 3 m/S 751 mmHg 88%
    02:00 +14°C° 0.2 mm 3 m/S 751 mmHg 89%
    03:00 +14°C° 0.2 mm 3 m/S 750 mmHg 90%
    04:00 +14°C° 0.4 mm 3 m/S 751 mmHg 90%
    05:00 +14°C° 0.4 mm 3 m/S 751 mmHg 91%
    06:00 +15°C° 0.4 mm 2 m/S 751 mmHg 92%
    07:00 +16°C° 0.1 mm 3 m/S 751 mmHg 85%
    08:00 +17°C° 0.1 mm 3 m/S 752 mmHg 77%
    09:00 +17°C° 0.1 mm 3 m/S 752 mmHg 70%
    10:00 +18°C° 0 mm 3 m/S 752 mmHg 65%
    11:00 +19°C° 0 mm 3 m/S 752 mmHg 61%
    12:00 +20°C° 0 mm 3 m/S 752 mmHg 56%
    13:00 +20°C° 0 mm 4 m/S 751 mmHg 55%
    14:00 +20°C° 0 mm 4 m/S 751 mmHg 54%
    15:00 +20°C° 0 mm 4 m/S 751 mmHg 52%
    16:00 +19°C° 0 mm 4 m/S 751 mmHg 56%
    17:00 +18°C° 0 mm 3 m/S 751 mmHg 59%
    18:00 +17°C° 0 mm 2 m/S 751 mmHg 62%
    19:00 +16°C° 0 mm 2 m/S 751 mmHg 64%
    20:00 +14°C° 0 mm 1 m/S 751 mmHg 66%
    21:00 +13°C° 0 mm 1 m/S 751 mmHg 68%
    22:00 +13°C° 0 mm 1 m/S 751 mmHg 71%
    23:00 +13°C° 0 mm 1 m/S 750 mmHg 73%

    übermorgen, 28 Mai, Dienstag

    Zeit Temperatur Niederschläge Wind Luftdruck Luftfeuchtigkeit
    00:00 +12°C° 0 mm 1 m/S 750 mmHg 76%
    01:00 +12°C° 0 mm 1 m/S 750 mmHg 79%
    02:00 +12°C° 0 mm 2 m/S 750 mmHg 81%
    03:00 +10°C° 0 mm 2 m/S 750 mmHg 84%
    04:00 +12°C° 0 mm 2 m/S 749 mmHg 82%
    05:00 +13°C° 0 mm 2 m/S 749 mmHg 79%
    06:00 +12°C° 0 mm 3 m/S 749 mmHg 76%
    07:00 +13°C° 0.7 mm 3 m/S 749 mmHg 74%
    08:00 +14°C° 0.7 mm 4 m/S 749 mmHg 72%
    09:00 +15°C° 0.7 mm 4 m/S 748 mmHg 70%
    10:00 +17°C° 0.6 mm 4 m/S 748 mmHg 68%
    11:00 +17°C° 0.6 mm 4 m/S 748 mmHg 65%
    12:00 +18°C° 0.6 mm 4 m/S 748 mmHg 63%
    13:00 +18°C° 0.6 mm 4 m/S 748 mmHg 63%
    14:00 +18°C° 0.6 mm 4 m/S 748 mmHg 64%
    15:00 +18°C° 0.6 mm 4 m/S 748 mmHg 64%
    16:00 +17°C° 0.6 mm 4 m/S 748 mmHg 68%
    17:00 +16°C° 0.6 mm 3 m/S 749 mmHg 71%
    18:00 +14°C° 0.6 mm 3 m/S 749 mmHg 75%
    19:00 +13°C° 0.5 mm 3 m/S 749 mmHg 78%
    20:00 +13°C° 0.5 mm 3 m/S 750 mmHg 81%
    21:00 +12°C° 0.5 mm 3 m/S 751 mmHg 84%
    22:00 +11°C° 0 mm 3 m/S 751 mmHg 86%
    23:00 +10°C° 0 mm 3 m/S 751 mmHg 87%

    29 Mai, Mittwoch

    Zeit Temperatur Niederschläge Wind Luftdruck Luftfeuchtigkeit
    00:00 +10°C° 0 mm 2 m/S 752 mmHg 89%
    01:00 +9°C° 0 mm 2 m/S 752 mmHg 90%
    02:00 +9°C° 0 mm 2 m/S 753 mmHg 92%
    03:00 +9°C° 0 mm 2 m/S 753 mmHg 93%
    04:00 +9°C° 0 mm 2 m/S 754 mmHg 92%
    05:00 +10°C° 0 mm 2 m/S 754 mmHg 91%
    06:00 +10°C° 0 mm 2 m/S 755 mmHg 90%
    07:00 +12°C° 0.1 mm 2 m/S 755 mmHg 88%
    08:00 +12°C° 0.1 mm 2 m/S 756 mmHg 86%
    09:00 +13°C° 0.1 mm 2 m/S 756 mmHg 84%
    10:00 +14°C° 0.1 mm 2 m/S 756 mmHg 76%
    11:00 +15°C° 0.1 mm 2 m/S 756 mmHg 68%
    12:00 +17°C° 0.1 mm 2 m/S 757 mmHg 61%
    13:00 +17°C° 0.1 mm 2 m/S 757 mmHg 59%
    14:00 +17°C° 0.1 mm 3 m/S 757 mmHg 58%
    15:00 +18°C° 0.1 mm 3 m/S 757 mmHg 57%
    16:00 +17°C° 0 mm 2 m/S 757 mmHg 59%
    17:00 +17°C° 0 mm 2 m/S 757 mmHg 62%
    18:00 +16°C° 0 mm 2 m/S 758 mmHg 65%
    19:00 +15°C° 0 mm 1 m/S 758 mmHg 69%
    20:00 +13°C° 0 mm 1 m/S 759 mmHg 73%
    21:00 +12°C° 0 mm 1 m/S 759 mmHg 77%
    22:00 +11°C° 0 mm 1 m/S 759 mmHg 80%
    23:00 +11°C° 0 mm 1 m/S 760 mmHg 82%

    30 Mai, Donnerstag

    Zeit Temperatur Niederschläge Wind Luftdruck Luftfeuchtigkeit
    00:00 +10°C° 0 mm 1 m/S 760 mmHg 84%
    01:00 +10°C° 0 mm 1 m/S 760 mmHg 85%
    02:00 +9°C° 0 mm 1 m/S 760 mmHg 86%
    03:00 +9°C° 0 mm 1 m/S 760 mmHg 87%
    04:00 +10°C° 0 mm 1 m/S 760 mmHg 83%
    05:00 +12°C° 0 mm 1 m/S 760 mmHg 80%
    06:00 +13°C° 0 mm 1 m/S 760 mmHg 76%
    07:00 +14°C° 0 mm 2 m/S 760 mmHg 68%
    08:00 +16°C° 0 mm 2 m/S 760 mmHg 60%
    09:00 +18°C° 0 mm 2 m/S 760 mmHg 52%
    10:00 +19°C° 0 mm 3 m/S 760 mmHg 51%
    11:00 +19°C° 0 mm 3 m/S 760 mmHg 50%
    12:00 +20°C° 0 mm 4 m/S 760 mmHg 48%
    13:00 +20°C° 0 mm 4 m/S 760 mmHg 49%
    14:00 +20°C° 0 mm 5 m/S 760 mmHg 50%
    15:00 +20°C° 0 mm 5 m/S 760 mmHg 52%
    16:00 +20°C° 0 mm 4 m/S 760 mmHg 58%
    17:00 +19°C° 0 mm 4 m/S 760 mmHg 64%
    18:00 +18°C° 0 mm 3 m/S 760 mmHg 70%
    19:00 +17°C° 0.2 mm 3 m/S 760 mmHg 75%
    20:00 +15°C° 0.2 mm 4 m/S 761 mmHg 80%
    21:00 +14°C° 0.2 mm 4 m/S 761 mmHg 85%
    22:00 +14°C° 0 mm 4 m/S 761 mmHg 87%
    23:00 +13°C° 0 mm 3 m/S 761 mmHg 89%

    31 Mai, Freitag

    Zeit Temperatur Niederschläge Wind Luftdruck Luftfeuchtigkeit
    00:00 +13°C° 0 mm 3 m/S 761 mmHg 91%
    01:00 +14°C° 0.1 mm 3 m/S 761 mmHg 91%
    02:00 +14°C° 0.1 mm 3 m/S 761 mmHg 91%
    03:00 +14°C° 0.1 mm 3 m/S 761 mmHg 91%
    04:00 +14°C° 0.1 mm 3 m/S 761 mmHg 91%
    05:00 +16°C° 0.1 mm 3 m/S 761 mmHg 91%
    06:00 +16°C° 0.1 mm 3 m/S 761 mmHg 91%
    07:00 +16°C° 0.1 mm 3 m/S 762 mmHg 89%
    08:00 +17°C° 0.1 mm 3 m/S 762 mmHg 86%
    09:00 +18°C° 0.1 mm 3 m/S 762 mmHg 83%
    10:00 +17°C° 0.5 mm 3 m/S 762 mmHg 86%
    11:00 +17°C° 0.5 mm 3 m/S 762 mmHg 88%
    12:00 +16°C° 0.5 mm 2 m/S 762 mmHg 91%
    13:00 +17°C° 0.1 mm 3 m/S 762 mmHg 90%
    14:00 +17°C° 0.1 mm 3 m/S 762 mmHg 88%
    15:00 +18°C° 0.1 mm 3 m/S 762 mmHg 87%
    16:00 +18°C° 0.1 mm 3 m/S 762 mmHg 86%
    17:00 +18°C° 0.1 mm 2 m/S 762 mmHg 85%
    18:00 +19°C° 0.1 mm 2 m/S 762 mmHg 85%
    19:00 +18°C° 0.2 mm 2 m/S 762 mmHg 87%
    20:00 +17°C° 0.2 mm 2 m/S 763 mmHg 89%
    21:00 +16°C° 0.2 mm 2 m/S 763 mmHg 91%
    22:00 +16°C° 0 mm 2 m/S 763 mmHg 92%
    23:00 +15°C° 0 mm 2 m/S 763 mmHg 93%
    Mehr zeigen